WGS F6 (USA 244)

Last updated on Sun Jun 21 2026 00:03:05 GMT+0000 (Coordinated Universal Time)

1 39222U 13041A 26171.04072507 .00000084 00000+0 00000+0 0 9999 2 39222 0.0193 12.6218 0000159 358.5435 136.5486 1.00271592 46090
UTC large
Height (km)
Speed (km/s)
/
Latitude / Longitude
Inclination (degrees)
Orbital Period (minutes)
Azimuth
Elevation
Range (km)
Doppler Factor

Next 0 passes for location: London (51.5072 / 0.1276)

No passes found over London.
WGS F6 (USA 244)